N0YK Weather Reports


time (UTC)temp
F
wind
direction
speed
knots
gust
knots
rain 1hr
in
rain 24hr
in
rain mn
in
humidity
%
barometer
mb
20260906203506 94 169 3.5 13.0 0.00 0.00 0.00 43 1005.6
20260906203006 94 171 5.2 13.0 0.00 0.00 0.00 42 1005.6
20260906202506 94 162 6.1 13.0 0.00 0.00 0.00 44 1005.6
20260906202006 94 167 5.2 10.4 0.00 0.00 0.00 43 1005.6
20260906201506 94 158 4.3 26.1 0.00 0.00 0.00 45 1005.6
20260906201006 93 140 9.6 26.1 0.00 0.00 0.00 45 1005.6
20260906200506 93 162 4.3 13.0 0.00 0.00 0.00 46 1005.6
20260906200006 93 140 6.1 14.8 0.00 0.00 0.00 47 1005.6
20260906195506 93 146 7.0 19.1 0.00 0.00 0.00 47 1005.6
20260906195005 92 147 6.1 19.1 0.00 0.00 0.00 47 1005.6
20260906194506 92 151 7.8 19.1 0.00 0.00 0.00 48 1005.6
20260906194006 91 145 5.2 19.1 0.00 0.00 0.00 49 1005.6
20260906193506 91 140 8.7 20.9 0.00 0.00 0.00 51 1005.6
20260906193005 91 138 9.6 22.6 0.00 0.00 0.00 49 1005.6
20260906192506 91 143 7.8 22.6 0.00 0.00 0.00 50 1005.6
20260906192006 91 139 8.7 20.0 0.00 0.00 0.00 51 1005.6
20260906191506 90 147 5.2 21.7 0.00 0.00 0.00 53 1005.6
20260906191006 90 143 8.7 21.7 0.00 0.00 0.00 53 1005.6
20260906190506 89 128 9.6 21.7 0.00 0.00 0.00 52 1005.6
20260906190027 89 136 8.7 19.1 0.00 0.00 0.00 56 1005.6
20260906185506 88 127 9.6 20.0 0.00 0.00 0.00 57 1005.6
20260906185006 87 129 7.8 20.0 0.00 0.00 0.00 59 1005.6
20260906184506 87 129 7.8 16.5 0.00 0.00 0.00 60 1005.6
20260906184006 86 132 7.0 20.9 0.00 0.00 0.00 61 1005.6
20260906183506 86 124 7.0 20.9 0.00 0.00 0.00 63 1005.6
20260906183006 85 118 7.8 18.2 0.00 0.00 0.00 63 1005.6
20260906182506 85 117 7.8 18.2 0.00 0.00 0.00 63 1005.6
20260906182027 85 126 5.2 16.5 0.00 0.00 0.00 65 1005.6
20260906181505 84 127 6.1 16.5 0.00 0.00 0.00 67 1005.6
20260906180506 83 116 4.3 22.6 0.00 0.00 0.00 67 1005.6
20260906180005 83 121 7.0 16.5 0.00 0.00 0.00 66 1005.6
20260906175506 83 108 7.8 17.4 0.00 0.00 0.00 65 1005.6
20260906175006 83 122 7.8 19.1 0.00 0.00 0.00 68 1005.6
20260906174506 82 122 6.1 19.1 0.00 0.00 0.00 66 1005.6
20260906174006 82 113 7.8 17.4 0.00 0.00 0.00 66 1005.6
20260906173526 81 126 5.2 17.4 0.00 0.00 0.00 68 1005.6
20260906173006 81 125 5.2 12.2 0.00 0.00 0.00 70 1005.6
20260906172505 80 115 4.3 19.1 0.00 0.00 0.00 72 1005.6
20260906172006 80 109 5.2 19.1 0.00 0.00 0.00 72 1005.6
20260906171505 80 119 6.1 14.8 0.00 0.00 0.00 71 1005.6
20260906171006 80 124 3.5 11.3 0.00 0.00 0.00 72 1005.6
20260906170505 81 107 4.3 11.3 0.00 0.00 0.00 71 1005.6
20260906170006 80 137 4.3 9.6 0.00 0.00 0.00 73 1005.6
20260906165505 79 112 5.2 9.6 0.00 0.00 0.00 74 1005.6
20260906165006 78 103 3.5 7.8 0.00 0.00 0.00 74 1005.6
20260906164527 78 108 2.6 7.8 0.00 0.00 0.00 75 1005.6
20260906164006 78 112 2.6 11.3 0.00 0.00 0.00 75 1005.6
20260906163506 78 140 3.5 11.3 0.00 0.00 0.00 74 1005.6
20260906163006 78 110 5.2 11.3 0.00 0.00 0.00 73 1005.6
20260906162506 79 154 3.5 15.6 0.00 0.00 0.00 72 1005.6
20260906162006 79 125 5.2 18.2 0.00 0.00 0.00 70 1005.6
20260906161506 80 127 7.0 18.2 0.00 0.00 0.00 69 1005.6
20260906161006 80 126 5.2 13.9 0.00 0.00 0.00 69 1005.6
20260906160506 80 124 5.2 16.5 0.00 0.00 0.00 71 1005.6
20260906160006 79 127 7.8 16.5 0.00 0.00 0.00 72 1005.6
20260906155527 78 112 2.6 10.4 0.00 0.00 0.00 76 1005.6
20260906155006 78 161 3.5 13.0 0.00 0.00 0.00 75 1005.6
20260906154506 78 170 3.5 13.9 0.00 0.00 0.00 75 1005.6
20260906154006 78 143 5.2 14.8 0.00 0.00 0.00 75 1005.6
20260906153005 77 104 4.3 13.9 0.00 0.00 0.00 77 1005.6
20260906152506 76 129 4.3 11.3 0.00 0.00 0.00 80 1005.6
20260906152027 75 133 5.2 10.4 0.00 0.00 0.00 81 1005.6
20260906151506 74 159 2.6 8.7 0.00 0.00 0.00 81 1005.6
20260906151006 74 151 3.5 8.7 0.00 0.00 0.00 82 1005.6
20260906150526 74 122 3.5 12.2 0.00 0.00 0.00 82 1005.6
20260906145527 74 112 5.2 11.3 0.00 0.00 0.00 82 1005.6
20260906145027 73 64 4.3 8.7 0.00 0.00 0.00 82 1005.6
20260906144506 73 103 3.5 8.7 0.00 0.00 0.00 82 1005.6
20260906144006 73 92 3.5 11.3 0.00 0.00 0.00 82 1005.6
20260906143506 72 121 4.3 11.3 0.00 0.00 0.00 82 1005.6
20260906143006 72 107 3.5 10.4 0.00 0.00 0.00 82 1005.6
20260906142506 72 104 4.3 9.6 0.00 0.00 0.00 83 1005.6
20260906142006 73 96 2.6 8.7 0.00 0.00 0.00 82 1005.6
20260906141505 73 101 3.5 12.2 0.00 0.00 0.00 81 1005.6
20260906140505 73 105 2.6 7.0 0.00 0.00 0.00 82 1005.6
20260906140006 73 158 2.6 7.0 0.00 0.00 0.00 81 1005.6
20260906135505 73 55 2.6 7.0 0.00 0.00 0.00 82 1005.6
20260906135006 73 61 2.6 7.0 0.00 0.00 0.00 82 1005.6
20260906134505 73 86 1.7 7.8 0.00 0.00 0.00 82 1005.6
20260906134006 73 85 3.5 7.8 0.00 0.00 0.00 82 1005.6
20260906133505 73 76 3.5 7.8 0.00 0.00 0.00 81 1005.6
20260906133006 73 77 2.6 8.7 0.00 0.00 0.00 81 1005.6
20260906132506 73 39 2.6 12.2 0.00 0.00 0.00 81 1005.6
20260906132027 73 57 6.1 12.2 0.00 0.00 0.00 80 1005.6
20260906131506 74 58 4.3 9.6 0.00 0.00 0.00 79 1005.6
20260906131006 74 54 4.3 9.6 0.00 0.00 0.00 78 1005.6
20260906130506 74 60 4.3 7.8 0.00 0.00 0.00 77 1005.6
20260906130006 74 76 3.5 7.8 0.00 0.00 0.00 77 1005.6
20260906125506 74 50 3.5 7.8 0.00 0.00 0.00 78 1005.6
20260906125006 74 42 4.3 7.8 0.00 0.00 0.00 78 1005.6
20260906124506 73 53 4.3 8.7 0.00 0.00 0.00 79 1005.6
20260906124006 73 60 3.5 9.6 0.00 0.00 0.00 80 1005.6
20260906123527 73 52 5.2 9.6 0.00 0.00 0.00 81 1005.6
20260906123005 73 46 6.1 9.6 0.00 0.00 0.00 81 1005.6
20260906122506 73 39 5.2 8.7 0.00 0.00 0.00 81 1005.6
20260906122005 73 27 4.3 7.0 0.00 0.00 0.00 81 1005.6
20260906121506 73 340 1.7 4.3 0.00 0.00 0.00 81 1005.6
20260906121005 74 359 0.9 3.5 0.00 0.00 0.00 81 1005.6
20260906120506 74 31 1.7 2.6 0.00 0.00 0.00 80 1005.6
20260906120026 74 32 0.9 1.7 0.00 0.00 0.00 79 1005.6
20260906115506 74 32 0.0 1.7 0.00 0.00 0.00 79 1005.6
20260906115005 74 98 0.0 1.7 0.00 0.00 0.00 77 1005.6
20260906114506 74 56 0.9 3.5 0.00 0.00 0.00 77 1005.6
20260906114006 75 69 0.9 4.3 0.00 0.00 0.00 76 1005.6
20260906113506 75 89 1.7 4.3 0.00 0.00 0.00 75 1005.6
20260906113006 75 89 1.7 4.3 0.00 0.00 0.00 75 1005.6
20260906112506 75 257 0.0 0.9 0.00 0.00 0.00 75 1005.6
20260906112006 75 256 0.0 0.9 0.00 0.00 0.00 75 1005.6
20260906111527 75 257 0.0 3.5 0.00 0.00 0.00 75 1005.6
20260906111006 75 256 0.0 3.5 0.00 0.00 0.00 74 1005.6
20260906110505 75 216 1.7 2.6 0.00 0.00 0.00 73 1005.6
20260906110006 75 208 0.0 1.7 0.00 0.00 0.00 72 1005.6
20260906105505 76 208 0.0 3.5 0.00 0.00 0.00 72 1005.6
20260906105006 76 208 0.9 3.5 0.00 0.00 0.00 71 1005.6
20260906104506 76 218 0.9 2.6 0.00 0.00 0.00 71 1005.6
20260906104005 76 218 0.9 4.3 0.00 0.00 0.00 71 1005.6
20260906103506 75 209 0.9 4.3 0.00 0.00 0.00 71 1005.6
20260906103005 75 208 1.7 3.5 0.00 0.00 0.00 72 1005.6
20260906102506 75 208 0.0 4.3 0.00 0.00 0.00 73 1005.6
20260906102006 75 208 0.9 4.3 0.00 0.00 0.00 73 1005.6
20260906101506 76 231 0.9 3.5 0.00 0.00 0.00 72 1005.6
20260906101027 76 207 0.9 4.3 0.00 0.00 0.00 72 1005.6
20260906100505 76 170 0.0 4.3 0.00 0.00 0.00 72 1005.6
20260906100006 76 228 0.9 3.5 0.00 0.00 0.00 71 1005.6
20260906095506 76 190 0.9 3.5 0.00 0.00 0.00 71 1005.6
20260906095006 76 211 0.9 3.5 0.00 0.00 0.00 72 1005.6
20260906094506 76 176 0.9 2.6 0.00 0.00 0.00 72 1005.6
20260906094006 76 170 0.0 2.6 0.00 0.00 0.00 72 1005.6
20260906093506 76 228 0.0 3.5 0.00 0.00 0.00 73 1005.6
20260906093006 76 168 0.9 3.5 0.00 0.00 0.00 73 1005.6
20260906092506 76 169 0.9 2.6 0.00 0.00 0.00 73 1005.6
20260906092005 76 165 0.0 2.6 0.00 0.00 0.00 73 1005.6
20260906091506 76 207 0.9 3.5 0.00 0.00 0.00 74 1005.6
20260906091005 75 218 0.9 3.5 0.00 0.00 0.00 74 1005.6
20260906090527 75 218 0.9 2.6 0.00 0.00 0.00 75 1005.6
20260906090027 75 226 0.0 1.7 0.00 0.00 0.00 74 1005.6
20260906085505 75 226 0.0 0.9 0.00 0.00 0.00 74 1005.6
20260906085048 75 226 0.0 0.9 0.00 0.00 0.00 74 1005.6
20260906084506 75 227 0.0 1.7 0.00 0.00 0.00 74 1005.6
20260906084005 75 226 0.0 1.7 0.00 0.00 0.00 73 1005.6
20260906083506 76 146 0.0 2.6 0.00 0.00 0.00 73 1005.6
20260906083006 76 144 0.9 2.6 0.00 0.00 0.00 72 1005.6
20260906082506 76 210 0.0 1.7 0.00 0.00 0.00 71 1005.6
20260906082006 76 176 0.0 1.7 0.00 0.00 0.00 71 1005.6
20260906081506 76 156 0.0 0.9 0.00 0.00 0.00 70 1005.6
20260906081006 76 156 0.0 0.9 0.00 0.00 0.00 70 1005.6
20260906080505 76 156 0.0 0.0 0.00 0.00 0.00 70 1005.6
20260906080006 76 156 0.0 0.9 0.00 0.00 0.00 70 1005.6
20260906075505 76 156 0.0 2.6 0.00 0.00 0.00 70 1005.6
20260906075006 76 156 0.0 2.6 0.00 0.00 0.00 70 1005.6
20260906074505 76 156 0.9 2.6 0.00 0.00 0.00 70 1005.6
20260906074006 76 156 0.0 1.7 0.00 0.00 0.00 70 1005.6
20260906073527 77 156 0.0 1.7 0.00 0.00 0.00 69 1005.6
20260906073027 77 156 0.0 2.6 0.00 0.00 0.00 69 1005.6
20260906072505 77 156 0.0 5.2 0.00 0.00 0.00 69 1005.6
20260906072006 77 153 2.6 5.2 0.00 0.00 0.00 69 1005.6
20260906071505 77 163 0.9 4.3 0.00 0.00 0.00 68 1005.6
20260906071006 77 136 1.7 4.3 0.00 0.00 0.00 68 1005.6
20260906070505 77 145 0.9 4.3 0.00 0.00 0.00 68 1005.6
20260906070027 77 155 0.9 5.2 0.00 0.00 0.00 68 1005.6
20260906065505 77 151 0.9 5.2 0.00 0.00 0.00 68 1005.6
20260906064506 77 169 1.7 4.3 0.00 0.00 0.00 68 1005.6
20260906064005 76 192 1.7 4.3 0.00 0.00 0.00 69 1005.6
20260906063506 76 156 1.7 3.5 0.00 0.00 0.00 69 1005.6
20260906063006 76 185 1.7 3.5 0.00 0.00 0.00 69 1005.6
20260906062505 76 157 0.9 2.6 0.00 0.00 0.00 69 1005.6
20260906062006 76 170 0.9 6.1 0.00 0.00 0.00 69 1005.6
20260906061505 76 170 0.9 6.1 0.00 0.00 0.00 69 1005.6
20260906061006 76 149 2.6 7.0 0.00 0.00 0.00 69 1005.6
20260906060505 76 136 3.5 7.0 0.00 0.00 0.00 69 1005.6
20260906060006 76 138 3.5 6.1 0.00 0.00 0.00 70 1005.6
20260906055505 76 143 3.5 6.1 0.00 0.00 0.00 70 1005.6
20260906055006 75 138 4.3 7.0 0.00 0.00 0.00 70 1005.6
20260906054505 75 140 2.6 7.0 0.00 0.00 0.00 70 1005.6
20260906054006 76 166 0.9 5.2 0.00 0.00 0.00 70 1005.6
20260906053505 76 137 0.9 5.2 0.00 0.00 0.00 70 1005.6
20260906053006 76 138 2.6 4.3 0.00 0.00 0.00 69 1005.6
20260906052526 76 130 1.7 3.5 0.00 0.00 0.00 69 1005.6
20260906052006 76 150 0.9 5.2 0.00 0.00 0.00 69 1005.6
20260906051505 76 141 1.7 5.2 0.00 0.00 0.00 69 1005.6
20260906051006 76 184 0.9 3.5 0.00 0.00 0.00 69 1005.6
20260906050527 77 184 0.0 3.5 0.00 0.00 0.00 68 1005.6
20260906050005 77 184 0.0 3.5 0.00 0.00 0.00 67 1005.6
20260906045506 77 184 0.0 2.6 0.00 0.00 0.00 67 1005.6
20260906045005 77 184 0.0 4.3 0.00 0.00 0.00 66 1005.6
20260906044506 78 207 1.7 4.3 0.00 0.00 0.00 65 1005.6
20260906044026 78 142 0.0 6.1 0.00 0.00 0.00 65 1005.6
20260906043505 79 137 3.5 6.1 0.00 0.00 0.00 64 1005.6
20260906043006 79 144 3.5 6.1 0.00 0.00 0.00 64 1005.6
20260906042526 79 137 2.6 6.1 0.00 0.00 0.00 63 1005.6
20260906042006 79 129 2.6 6.1 0.00 0.00 0.00 63 1005.6
20260906041505 80 147 2.6 6.1 0.00 0.00 0.00 62 1005.6
20260906041006 80 130 1.7 7.0 0.00 0.00 0.00 62 1005.6
20260906040505 80 134 2.6 7.0 0.00 0.00 0.00 61 1005.6
20260906040027 80 154 1.7 7.8 0.00 0.00 0.00 61 1005.6
20260906035505 80 134 3.5 7.8 0.00 0.00 0.00 62 1005.6
20260906035005 80 130 2.6 7.0 0.00 0.00 0.00 61 1005.6
20260906034505 81 147 1.7 7.0 0.00 0.00 0.00 61 1005.6
20260906034005 81 151 1.7 6.1 0.00 0.00 0.00 61 1005.6
20260906033505 81 140 1.7 7.8 0.00 0.00 0.00 61 1005.6
20260906033026 81 157 2.6 7.8 0.00 0.00 0.00 61 1005.6
20260906032506 81 143 1.7 7.8 0.00 0.00 0.00 62 1005.6
20260906032005 81 142 3.5 7.8 0.00 0.00 0.00 62 1005.6
20260906031506 81 156 1.7 6.1 0.00 0.00 0.00 62 1005.6
20260906031005 81 146 2.6 7.0 0.00 0.00 0.00 62 1005.6
20260906030506 81 148 1.7 7.0 0.00 0.00 0.00 62 1005.6
20260906030006 81 149 2.6 7.0 0.00 0.00 0.00 62 1005.6
20260906025505 81 136 2.6 7.0 0.00 0.00 0.00 63 1005.6
20260906025006 81 136 3.5 8.7 0.00 0.00 0.00 63 1005.6
20260906024505 81 136 3.5 8.7 0.00 0.00 0.00 62 1005.6
20260906024006 81 132 4.3 8.7 0.00 0.00 0.00 62 1005.6
20260906023527 81 142 3.5 9.6 0.00 0.00 0.00 62 1005.6
20260906023005 81 131 5.2 9.6 0.00 0.00 0.00 62 1005.6
20260906022527 82 123 3.5 9.6 0.00 0.00 0.00 61 1005.6
20260906022005 82 127 4.3 10.4 0.00 0.00 0.00 61 1005.6
20260906021505 82 129 5.2 10.4 0.00 0.00 0.00 61 1005.6
20260906021027 82 130 5.2 9.6 0.00 0.00 0.00 60 1005.6
20260906020505 82 154 4.3 9.6 0.00 0.00 0.00 60 1005.6
20260906020006 82 130 5.2 9.6 0.00 0.00 0.00 60 1005.6
20260906015505 82 128 4.3 9.6 0.00 0.00 0.00 59 1005.6
20260906015006 83 129 5.2 11.3 0.00 0.00 0.00 59 1005.6
20260906014505 83 128 6.1 11.3 0.00 0.00 0.00 58 1005.6
20260906014006 83 132 5.2 10.4 0.00 0.00 0.00 58 1005.6
20260906013505 83 141 3.5 13.0 0.00 0.00 0.00 57 1005.6
20260906013006 83 128 3.5 13.0 0.00 0.00 0.00 57 1005.6
20260906012505 84 126 4.3 12.2 0.00 0.00 0.00 57 1005.6
20260906012005 84 135 4.3 13.0 0.00 0.00 0.00 57 1005.6
20260906011505 84 123 4.3 13.0 0.00 0.00 0.00 57 1005.6
20260906011006 84 129 4.3 13.0 0.00 0.00 0.00 56 1005.6
20260906010527 84 132 5.2 15.6 0.00 0.00 0.00 56 1005.6
20260906010005 85 125 5.2 15.6 0.00 0.00 0.00 55 1005.6
20260906005505 85 127 6.1 17.4 0.00 0.00 0.00 54 1005.6
20260906005005 85 132 7.0 19.1 0.00 0.00 0.00 54 1005.6
20260906004505 86 136 5.2 19.1 0.00 0.00 0.00 53 1005.6
20260906003506 86 131 7.0 13.0 0.00 0.00 0.00 54 1005.6
20260906003047 87 117 5.2 14.8 0.00 0.00 0.00 52 1005.6
20260906002505 87 122 7.8 19.1 0.00 0.00 0.00 51 1005.6
20260906002005 89 127 7.8 19.1 0.00 0.00 0.00 50 1005.6
20260906001526 90 99 7.0 15.6 0.00 0.00 0.00 49 1005.6
20260906001006 91 112 6.1 12.2 0.00 0.00 0.00 49 1005.6
20260906000505 92 125 6.1 12.2 0.00 0.00 0.00 47 1005.6
20260906000006 92 117 3.5 13.0 0.00 0.00 0.00 47 1005.6
20260905235505 92 126 5.2 13.0 0.00 0.00 0.00 46 1005.6
20260905235006 93 93 4.3 11.3 0.00 0.00 0.00 44 1005.6
20260905234505 94 100 4.3 12.2 0.00 0.00 0.00 44 1005.6
20260905234027 95 121 6.1 12.2 0.00 0.00 0.00 42 1005.6
20260905233526 96 132 6.1 12.2 0.00 0.00 0.00 40 1005.6
20260905233005 96 166 1.7 6.1 0.00 0.00 0.00 38 1005.6
20260905232506 96 196 1.7 4.3 0.00 0.00 0.00 38 1005.6
20260905232005 96 189 0.9 7.8 0.00 0.00 0.00 38 1005.6
20260905231506 96 191 1.7 7.8 0.00 0.00 0.00 39 1005.6
20260905231005 96 218 1.7 7.0 0.00 0.00 0.00 38 1005.6
20260905230505 97 194 1.7 7.8 0.00 0.00 0.00 38 1005.6
20260905230005 97 178 2.6 10.4 0.00 0.00 0.00 38 1005.6
20260905225505 97 141 4.3 10.4 0.00 0.00 0.00 39 1005.6
20260905225005 96 207 0.9 6.1 0.00 0.00 0.00 39 1005.6
20260905224505 96 177 1.7 6.1 0.00 0.00 0.00 39 1005.6
20260905224005 97 186 1.7 6.1 0.00 0.00 0.00 40 1005.6
20260905223526 97 164 0.9 8.7 0.00 0.00 0.00 41 1005.6
20260905223027 97 154 4.3 8.7 0.00 0.00 0.00 40 1005.6
20260905222506 96 191 1.7 5.2 0.00 0.00 0.00 40 1005.6
20260905222005 97 181 1.7 7.0 0.00 0.00 0.00 39 1005.6
20260905221527 97 159 2.6 7.8 0.00 0.00 0.00 40 1005.6
20260905221005 97 169 2.6 7.8 0.00 0.00 0.00 40 1005.6
20260905220506 97 152 0.9 6.1 0.00 0.00 0.00 42 1005.6
20260905220005 97 172 1.7 7.8 0.00 0.00 0.00 40 1005.6
20260905215527 97 166 2.6 7.8 0.00 0.00 0.00 40 1005.6
20260905215005 97 193 1.7 5.2 0.00 0.00 0.00 41 1005.6
20260905214505 96 194 1.7 5.2 0.00 0.00 0.00 41 1005.6
20260905214005 96 174 1.7 8.7 0.00 0.00 0.00 42 1005.6
20260905213505 96 174 1.7 8.7 0.00 0.00 0.00 43 1005.6
20260905213005 96 184 1.7 4.3 0.00 0.00 0.00 40 1005.6
20260905212526 96 176 1.7 6.1 0.00 0.00 0.00 42 1005.6
20260905212006 96 191 2.6 6.1 0.00 0.00 0.00 42 1005.6
20260905211505 96 162 2.6 6.1 0.00 0.00 0.00 41 1005.6
20260905211005 96 197 0.9 10.4 0.00 0.00 0.00 44 1005.6
20260905210526 96 166 2.6 10.4 0.00 0.00 0.00 43 1005.6
20260905210026 96 143 1.7 7.8 0.00 0.00 0.00 44 1005.6
20260905205506 96 183 1.7 13.0 0.00 0.00 0.00 42 1005.6
20260905205005 96 149 3.5 13.9 0.00 0.00 0.00 43 1005.6
20260905204506 96 158 4.3 13.9 0.00 0.00 0.00 43 1005.6
20260905204005 95 158 2.6 9.6 0.00 0.00 0.00 46 1005.6